• In Deutschland
  • Länderverzeichnis
  • Für 7 Tage
  • Wassertemperatur
  • Satellitenkarten
  • Wetterkarte
  • Widgets
  • user-avatar
    Anmelden

    Stündliche Wetter Mingachevir

    Heute, 23 April, Sonntag

    Zeit Temperatur Niederschläge Wind Luftdruck Luftfeuchtigkeit
    00:00 +12°C° 0 mm 4 m/S 756 mmHg 68%
    01:00 +11°C° 0 mm 3 m/S 756 mmHg 71%
    02:00 +10°C° 0 mm 3 m/S 756 mmHg 73%
    03:00 +10°C° 0 mm 4 m/S 756 mmHg 78%
    04:00 +10°C° 0 mm 3 m/S 756 mmHg 77%
    05:00 +10°C° 0 mm 3 m/S 756 mmHg 76%
    06:00 +10°C° 0 mm 3 m/S 755 mmHg 74%
    07:00 +12°C° 0 mm 3 m/S 755 mmHg 68%
    08:00 +14°C° 0 mm 3 m/S 754 mmHg 61%
    09:00 +17°C° 0 mm 3 m/S 754 mmHg 54%
    10:00 +19°C° 0 mm 3 m/S 753 mmHg 51%
    11:00 +20°C° 0 mm 3 m/S 752 mmHg 48%
    12:00 +21°C° 0 mm 4 m/S 751 mmHg 46%
    13:00 +22°C° 0 mm 3 m/S 750 mmHg 45%
    14:00 +24°C° 0 mm 3 m/S 749 mmHg 44%
    15:00 +24°C° 0 mm 3 m/S 748 mmHg 43%
    16:00 +22°C° 0 mm 3 m/S 747 mmHg 48%
    17:00 +21°C° 0 mm 3 m/S 747 mmHg 52%
    18:00 +20°C° 0 mm 2 m/S 746 mmHg 57%
    19:00 +19°C° 0 mm 2 m/S 746 mmHg 61%
    20:00 +18°C° 0 mm 2 m/S 745 mmHg 65%
    21:00 +17°C° 0 mm 2 m/S 745 mmHg 69%
    22:00 +16°C° 0 mm 2 m/S 745 mmHg 72%
    23:00 +15°C° 0 mm 2 m/S 745 mmHg 76%

    Morgen, 24 April, Montag

    Zeit Temperatur Niederschläge Wind Luftdruck Luftfeuchtigkeit
    00:00 +15°C° 0 mm 2 m/S 744 mmHg 80%
    01:00 +14°C° 0 mm 3 m/S 745 mmHg 77%
    02:00 +14°C° 0 mm 4 m/S 745 mmHg 73%
    03:00 +14°C° 0 mm 6 m/S 745 mmHg 70%
    04:00 +15°C° 0 mm 6 m/S 745 mmHg 65%
    05:00 +15°C° 0 mm 7 m/S 745 mmHg 61%
    06:00 +15°C° 0 mm 7 m/S 746 mmHg 56%
    07:00 +17°C° 0 mm 8 m/S 746 mmHg 50%
    08:00 +19°C° 0 mm 9 m/S 746 mmHg 44%
    09:00 +21°C° 0 mm 9 m/S 746 mmHg 38%
    10:00 +22°C° 0 mm 9 m/S 746 mmHg 37%
    11:00 +23°C° 0 mm 9 m/S 746 mmHg 35%
    12:00 +24°C° 0 mm 9 m/S 746 mmHg 34%
    13:00 +23°C° 0,2 mm 9 m/S 747 mmHg 36%
    14:00 +23°C° 0,2 mm 8 m/S 747 mmHg 37%
    15:00 +22°C° 0,2 mm 8 m/S 748 mmHg 39%
    16:00 +21°C° 0,2 mm 7 m/S 748 mmHg 41%
    17:00 +20°C° 0,2 mm 6 m/S 749 mmHg 44%
    18:00 +19°C° 0,2 mm 5 m/S 750 mmHg 46%
    19:00 +17°C° 0 mm 5 m/S 751 mmHg 46%
    20:00 +16°C° 0 mm 5 m/S 752 mmHg 47%
    21:00 +15°C° 0 mm 5 m/S 753 mmHg 47%
    22:00 +14°C° 0 mm 4 m/S 753 mmHg 48%
    23:00 +14°C° 0 mm 4 m/S 753 mmHg 49%

    übermorgen, 25 April, Dienstag

    Zeit Temperatur Niederschläge Wind Luftdruck Luftfeuchtigkeit
    00:00 +13°C° 0 mm 3 m/S 754 mmHg 51%
    01:00 +12°C° 0 mm 3 m/S 754 mmHg 52%
    02:00 +11°C° 0 mm 3 m/S 754 mmHg 54%
    03:00 +10°C° 0 mm 2 m/S 754 mmHg 56%
    04:00 +10°C° 0 mm 2 m/S 755 mmHg 57%
    05:00 +12°C° 0 mm 2 m/S 755 mmHg 58%
    06:00 +12°C° 0 mm 2 m/S 756 mmHg 59%
    07:00 +12°C° 0 mm 3 m/S 756 mmHg 52%
    08:00 +14°C° 0 mm 4 m/S 756 mmHg 45%
    09:00 +16°C° 0 mm 5 m/S 756 mmHg 38%
    10:00 +18°C° 0 mm 4 m/S 756 mmHg 35%
    11:00 +19°C° 0 mm 4 m/S 756 mmHg 33%
    12:00 +20°C° 0 mm 4 m/S 756 mmHg 31%
    13:00 +20°C° 0 mm 4 m/S 756 mmHg 31%
    14:00 +20°C° 0 mm 4 m/S 756 mmHg 31%
    15:00 +20°C° 0 mm 4 m/S 757 mmHg 32%
    16:00 +19°C° 0 mm 4 m/S 757 mmHg 35%
    17:00 +18°C° 0 mm 4 m/S 758 mmHg 38%
    18:00 +16°C° 0 mm 3 m/S 759 mmHg 42%
    19:00 +14°C° 0 mm 3 m/S 760 mmHg 45%
    20:00 +13°C° 0 mm 3 m/S 761 mmHg 47%
    21:00 +12°C° 0 mm 3 m/S 762 mmHg 50%
    22:00 +12°C° 0 mm 2 m/S 762 mmHg 53%
    23:00 +12°C° 0 mm 2 m/S 762 mmHg 57%

    26 April, Mittwoch

    Zeit Temperatur Niederschläge Wind Luftdruck Luftfeuchtigkeit
    00:00 +10°C° 0 mm 2 m/S 763 mmHg 60%
    01:00 +9°C° 0 mm 2 m/S 763 mmHg 61%
    02:00 +9°C° 0 mm 2 m/S 763 mmHg 62%
    03:00 +9°C° 0 mm 2 m/S 763 mmHg 64%
    04:00 +9°C° 0 mm 2 m/S 764 mmHg 63%
    05:00 +9°C° 0 mm 2 m/S 764 mmHg 63%
    06:00 +10°C° 0 mm 3 m/S 765 mmHg 62%
    07:00 +10°C° 0 mm 3 m/S 765 mmHg 61%
    08:00 +11°C° 0 mm 4 m/S 765 mmHg 61%
    09:00 +10°C° 0 mm 5 m/S 765 mmHg 60%
    10:00 +12°C° 0 mm 5 m/S 764 mmHg 54%
    11:00 +14°C° 0 mm 5 m/S 764 mmHg 49%
    12:00 +15°C° 0 mm 5 m/S 763 mmHg 44%
    13:00 +16°C° 0 mm 5 m/S 763 mmHg 42%
    14:00 +16°C° 0 mm 5 m/S 762 mmHg 41%
    15:00 +17°C° 0 mm 5 m/S 762 mmHg 39%
    16:00 +16°C° 0 mm 5 m/S 762 mmHg 42%
    17:00 +15°C° 0 mm 5 m/S 762 mmHg 45%
    18:00 +15°C° 0 mm 4 m/S 763 mmHg 49%
    19:00 +13°C° 0 mm 4 m/S 763 mmHg 54%
    20:00 +12°C° 0 mm 4 m/S 764 mmHg 59%
    21:00 +10°C° 0 mm 3 m/S 764 mmHg 65%
    22:00 +9°C° 0 mm 3 m/S 764 mmHg 67%
    23:00 +8°C° 0 mm 2 m/S 764 mmHg 70%

    27 April, Donnerstag

    Zeit Temperatur Niederschläge Wind Luftdruck Luftfeuchtigkeit
    00:00 +8°C° 0 mm 2 m/S 764 mmHg 73%
    01:00 +7°C° 0 mm 2 m/S 764 mmHg 74%
    02:00 +8°C° 0 mm 1 m/S 763 mmHg 76%
    03:00 +7°C° 0 mm 1 m/S 763 mmHg 78%
    04:00 +8°C° 0 mm 1 m/S 763 mmHg 75%
    05:00 +9°C° 0 mm 1 m/S 763 mmHg 72%
    06:00 +9°C° 0 mm 1 m/S 764 mmHg 70%
    07:00 +11°C° 0 mm 1 m/S 763 mmHg 61%
    08:00 +13°C° 0 mm 2 m/S 763 mmHg 52%
    09:00 +14°C° 0 mm 3 m/S 763 mmHg 44%
    10:00 +16°C° 0 mm 3 m/S 762 mmHg 41%
    11:00 +18°C° 0 mm 4 m/S 762 mmHg 38%
    12:00 +19°C° 0 mm 4 m/S 761 mmHg 35%
    13:00 +19°C° 0 mm 4 m/S 761 mmHg 35%
    14:00 +20°C° 0 mm 5 m/S 760 mmHg 35%
    15:00 +20°C° 0 mm 5 m/S 760 mmHg 36%
    16:00 +19°C° 0 mm 5 m/S 760 mmHg 39%
    17:00 +18°C° 0 mm 4 m/S 761 mmHg 43%
    18:00 +17°C° 0 mm 4 m/S 761 mmHg 46%
    19:00 +15°C° 0 mm 4 m/S 762 mmHg 51%
    20:00 +13°C° 0 mm 3 m/S 762 mmHg 55%
    21:00 +12°C° 0 mm 3 m/S 763 mmHg 60%
    22:00 +11°C° 0 mm 3 m/S 763 mmHg 60%
    23:00 +12°C° 0 mm 2 m/S 762 mmHg 61%

    28 April, Freitag

    Zeit Temperatur Niederschläge Wind Luftdruck Luftfeuchtigkeit
    00:00 +10°C° 0 mm 2 m/S 762 mmHg 62%
    01:00 +10°C° 0 mm 2 m/S 762 mmHg 61%
    02:00 +11°C° 0 mm 1 m/S 762 mmHg 60%
    03:00 +11°C° 0 mm 1 m/S 762 mmHg 59%
    04:00 +12°C° 0 mm 1 m/S 762 mmHg 58%
    05:00 +12°C° 0 mm 1 m/S 762 mmHg 57%
    06:00 +13°C° 0 mm 1 m/S 762 mmHg 56%
    07:00 +14°C° 0 mm 1 m/S 762 mmHg 55%
    08:00 +14°C° 0 mm 1 m/S 762 mmHg 53%
    09:00 +15°C° 0 mm 1 m/S 761 mmHg 52%
    10:00 +17°C° 0 mm 2 m/S 761 mmHg 48%
    11:00 +18°C° 0 mm 2 m/S 760 mmHg 44%
    12:00 +20°C° 0 mm 2 m/S 759 mmHg 41%
    13:00 +20°C° 0 mm 3 m/S 759 mmHg 40%
    14:00 +21°C° 0 mm 3 m/S 758 mmHg 39%
    15:00 +21°C° 0 mm 3 m/S 758 mmHg 38%
    16:00 +21°C° 0 mm 3 m/S 758 mmHg 41%
    17:00 +20°C° 0 mm 3 m/S 758 mmHg 44%
    18:00 +19°C° 0 mm 2 m/S 758 mmHg 48%
    19:00 +17°C° 0 mm 2 m/S 759 mmHg 52%
    20:00 +15°C° 0 mm 2 m/S 759 mmHg 55%
    21:00 +14°C° 0 mm 2 m/S 760 mmHg 59%
    22:00 +13°C° 0 mm 2 m/S 759 mmHg 62%
    23:00 +12°C° 0 mm 2 m/S 759 mmHg 64%
    Mehr zeigen